This is the latest recevied weather packets stored in our database for station/object DL5TW-13. If no packets are shown the sender has not sent any weather packets the latest 10 day(s).
| Time | Temp. | Humidity | Pressure | Rain* | Wind** | Luminosity | Snow |
|---|---|---|---|---|---|---|---|
| 1777507042 | 0° C | 61% | 1024.7 hPa | 0 mm | - | - | - |
| 1777506741 | 0° C | 60% | 1024.6 hPa | 0 mm | - | - | - |
| 1777506441 | 0° C | 60% | 1024.9 hPa | 0 mm | - | - | - |
| 1777506141 | 0° C | 59% | 1024.9 hPa | 0 mm | - | - | - |
| 1777505841 | 0° C | 59% | 1024.7 hPa | 0 mm | - | - | - |
| 1777505540 | 0.56° C | 59% | 1025 hPa | 0 mm | - | - | - |
| 1777505240 | 0.56° C | 58% | 1025 hPa | 0 mm | - | - | - |
| 1777504940 | 0.56° C | 57% | 1024.8 hPa | 0 mm | - | - | - |
| 1777504647 | 0.56° C | 57% | 1025 hPa | 0 mm | - | - | - |
| 1777504339 | 1.11° C | 56% | 1024.9 hPa | 0 mm | - | - | - |
| 1777504039 | 1.11° C | 56% | 1024.8 hPa | 0 mm | - | - | - |
| 1777503738 | 1.11° C | 55% | 1025 hPa | 0 mm | - | - | - |
| 1777503438 | 1.67° C | 54% | 1024.6 hPa | 0 mm | - | - | - |
| 1777503138 | 1.67° C | 54% | 1024.7 hPa | 0 mm | - | - | - |
| 1777502838 | 1.67° C | 53% | 1024.6 hPa | 0 mm | - | - | - |
| 1777502537 | 1.67° C | 53% | 1024.7 hPa | 0 mm | - | - | - |
| 1777502237 | 2.22° C | 53% | 1024.7 hPa | 0 mm | - | - | - |
| 1777501937 | 2.22° C | 53% | 1024.7 hPa | 0 mm | - | - | - |
| 1777501637 | 2.22° C | 53% | 1024.6 hPa | 0 mm | - | - | - |
| 1777501336 | 2.22° C | 52% | 1024.5 hPa | 0 mm | - | - | - |
| 1777501036 | 2.22° C | 52% | 1024.3 hPa | 0 mm | - | - | - |
| 1777500736 | 2.22° C | 51% | 1024.3 hPa | 0 mm | - | - | - |
| 1777500435 | 2.78° C | 51% | 1024.3 hPa | 0 mm | - | - | - |
| 1777500135 | 2.78° C | 52% | 1024.3 hPa | 0 mm | - | - | - |
| 1777499835 | 2.78° C | 52% | 1024.2 hPa | 0 mm | - | - | - |
* Rain latest hour (hover to see other rain measurements)
** Current wind speed in m/s (hover to see current wind gust speed)